Regional Weather Roundup
Issued by NWS

Home | Current Version | Previous Version | Text Only | Print | Product List | Glossary On
Versions: 1 2 3 4 5 6 7 8 9 10 11 12 13 14 15 16 17 18 19 20 21 22 23 24 25 26 27 28 29 30 31 32 33 34 35 36 37 38 39 40 41 42 43 44 45 46 47 48 49 50
000
ASUS43 KFSD 242010
RWRSD

WEATHER ROUNDUP FOR SOUTH DAKOTA
NATIONAL WEATHER SERVICE SIOUX FALLS SD
300 PM CDT FRI JUN 24 2016

NOTE: "FAIR" INDICATES FEW OR NO CLOUDS BELOW 12,000 FEET WITH NO
SIGNIFICANT WEATHER AND/OR OBSTRUCTIONS TO VISIBILITY.


SDZ001>005-009-010-012>017-242100-
NORTHWEST AND NORTH CENTRAL SOUTH DAKOTA

CITY           SKY/WX    TMP DP  RH WIND       PRES   REMARKS
BUFFALO          N/A     95  52  23 W13G20    29.69F
FAITH            N/A     98  47  17 MISG      29.72F
MOBRIDGE       SUNNY     96  65  35 S16       29.68F HX  98
$$

SDZ012>016-024>037-041>051-057-063-072>074-242100-
SOUTHWEST AND SOUTH CENTRAL SOUTH DAKOTA

CITY           SKY/WX    TMP DP  RH WIND       PRES   REMARKS
RAPID CTY ARPT SUNNY     97  42  15 E8        29.77F
PIERRE         SUNNY     99  64  31 S23G30    29.67F HX 101
CUSTER         SUNNY     91  24   9 W13G24    29.97F
ELLSWORTH AFB  SUNNY     98  38  12 E8        29.77F
PHILIP         SUNNY     99  52  20 VRB7      29.71F HX  96
PINE RIDGE     SUNNY    101  27   7 W14G21    29.80F
WINNER         FAIR      99  68  36 S17G25    29.76F HX 104
$$

SDZ004>011-016>023-039-040-242100-
NORTHEAST SOUTH DAKOTA

CITY           SKY/WX    TMP DP  RH WIND       PRES   REMARKS
ABERDEEN       SUNNY     92  65  40 S20G35    29.76F
WATERTOWN      SUNNY     88  64  44 S21G26    29.86F
BROOKINGS      SUNNY     84  66  54 S21       29.89F
SISSETON         N/A     90  65  43 S21G28    29.80F
$$

SDZ017-020-022-023-036>040-048>070-242100-
SOUTHEAST SOUTH DAKOTA

CITY           SKY/WX    TMP DP  RH WIND       PRES   REMARKS
SIOUX FALLS    MOSUNNY   83  66  56 S23       29.90F
HURON          SUNNY     89  66  46 SE18G32   29.78F
CHAMBERLAIN    SUNNY     91  73  56 S20G26    29.76F HX  99
MITCHELL       SUNNY     88  69  53 S24G32    29.82F
YANKTON        SUNNY     86  70  58 S20G28    29.85F
$$

ABBREVIATIONS USED IN REMARKS
   TC - TEMPERATURE IN CELSIUS
  WCI - WIND CHILL INDEX
   HX - HEAT INDEX
  VSB - VISIBILITY




USA.gov is the U.S. government's official web portal to all federal, state and local government web resources and services.